STOCKHOLM/ARLANDA current weather conditions

sailwx.info

Wind from 180 at 8 knots

Air temperature 3.0° C
Visibility: greater than 5.4 NM
Dewpoint 2.0° C

Last reported at 2015-Mar-02 06:50 UTC.
Time now 2015-Mar-02 07:27 UTC

Location: N 59°39' E 017°57'.
View on Google Maps.

See reports from other nearby stations

  
Tides and Currents Weather Stations Pressure Air Temp Water Temp Dewpoint Dewpoint Depression Visibility Wind Speed Wind Dir Waves Ship Positions
date/time (UTC)wind fromknots sea level pressurealtimeterstation pressurevisibilityair tempwater tempwave heightnotes
2015-Mar-02 06:50 180 8 5.4 3.0
2015-Mar-02 06:20 170 8 5.4 3.0
2015-Mar-02 05:50 170 8 5.4 3.0
2015-Mar-02 05:20 170 10 5.4 3.0
2015-Mar-02 04:50 170 9 5.4 3.0
2015-Mar-02 04:20 160 9 5.4 3.0
2015-Mar-02 03:50 170 8 5.4 3.0
2015-Mar-02 03:20 170 10 5.4 3.0
2015-Mar-02 02:50 170 10 5.4 3.0
2015-Mar-02 02:20 170 10 5.4 3.0
2015-Mar-02 01:50 160 9 5.4 3.0
2015-Mar-02 01:20 170 10 5.4 3.0
2015-Mar-02 00:50 170 9 5.4 3.0
2015-Mar-02 00:20 180 10 5.4 3.0
2015-Mar-01 23:50 180 10 5.4 3.0
2015-Mar-01 23:20 180 10 5.4 2.0
2015-Mar-01 22:50 170 12 5.4 3.0
2015-Mar-01 22:20 170 11 5.4 3.0
2015-Mar-01 21:50 170 13 5.4 3.0 Light rain snow.
2015-Mar-01 21:20 170 13 5.4 3.0 Light rain.
2015-Mar-01 20:50 170 13 5.4 3.0 Light rain.
2015-Mar-01 20:20 170 13 5.4 2.0 Light rain.
2015-Mar-01 19:50 160 14 3.8 2.0 Light rain.
2015-Mar-01 19:20 160 16 5.4 2.0 Light drizzle.
2015-Mar-01 18:50 160 16 4.3 2.0 Light rain. Mist.
2015-Mar-01 18:20 160 17 3.2 2.0 Light drizzle.
2015-Mar-01 17:50 160 17 3.2 3.0 Light rain.
2015-Mar-01 17:20 170 19 3.8 3.0 Light rain.
2015-Mar-01 16:50 170 20 5.4 4.0 Light rain.
2015-Mar-01 16:20 170 20 5.4 4.0 Light drizzle.
2015-Mar-01 15:50 170 20 5.4 4.0
2015-Mar-01 15:20 170 19 5.4 4.0
2015-Mar-01 14:50 160 19 gusting 30 5.4 5.0
2015-Mar-01 14:20 160 20 5.0
2015-Mar-01 13:50 160 22 5.0
2015-Mar-01 13:20 160 20 5.4 5.0
2015-Mar-01 12:50 160 20 5.4 5.0
2015-Mar-01 12:20 160 20 5.4 4.0
2015-Mar-01 11:50 160 19 gusting 30 5.4 4.0
2015-Mar-01 11:20 160 20 5.4 4.0
2015-Mar-01 10:50 160 20 5.4 4.0
2015-Mar-01 10:20 160 20 5.4 4.0
2015-Mar-01 09:50 170 20 5.4 4.0
2015-Mar-01 09:20 170 20 5.4 3.0
2015-Mar-01 08:50 170 19 5.4 3.0
2015-Mar-01 08:20 170 18 5.4 3.0
2015-Mar-01 07:50 170 16 5.4 2.0
2015-Mar-01 07:20 170 16 5.4 1.0
2015-Mar-01 06:50 160 16 5.4 1.0
2015-Mar-01 06:20 160 14 -0.0
2015-Mar-01 05:50 160 11 -0.0
2015-Mar-01 05:20 160 11 -0.0
2015-Mar-01 04:50 160 12 -0.0
2015-Mar-01 04:20 160 11 -0.0
2015-Mar-01 03:50 160 12 -0.0
2015-Mar-01 03:20 170 12 -0.0
2015-Mar-01 02:50 170 10 -0.0
2015-Mar-01 02:20 170 10 -0.0
2015-Mar-01 01:50 170 10 -0.0
2015-Mar-01 01:20 180 10 -0.0
2015-Mar-01 00:50 180 11 -0.0
2015-Mar-01 00:20 170 10 -0.0
2015-Feb-28 23:50 150 9 -0.0
2015-Feb-28 23:20 160 9 -0.0
2015-Feb-28 22:50 190 8 -0.0
2015-Feb-28 22:20 190 8 4.9-0.0 Mist.
2015-Feb-28 21:50 170 8 4.9-1.0 Mist.
2015-Feb-28 21:20 200 6 4.9-0.0 Mist.
2015-Feb-28 20:50 170 7 4.9-0.0 Mist.
2015-Feb-28 20:20 180 8 4.9-0.0 Mist.
2015-Feb-28 19:50 190 7 4.9-0.0 Mist.
2015-Feb-28 19:20 160 6 4.9 1.0 Mist.
2015-Feb-28 18:50 180 6 4.9-0.0 Mist.
2015-Feb-28 18:20 170 7 3.2-0.0 Mist.
2015-Feb-28 17:50 170 8 4.3 1.0 Mist.
2015-Feb-28 17:20 170 6 5.4-0.0
2015-Feb-28 16:50 200 3 1.0
2015-Feb-28 16:20 220 6 1.0
2015-Feb-28 15:50 230 6 5.4 2.0
2015-Feb-28 15:20 240 10 5.4 3.0
2015-Feb-28 14:50 220 8 5.4 4.0
2015-Feb-28 14:20 210 10 5.4 4.0
2015-Feb-28 13:50 210 10 5.4 3.0
2015-Feb-28 13:20 220 11 5.4 3.0
2015-Feb-28 12:50 200 10 4.9 3.0 Mist.
2015-Feb-28 12:20 220 9 4.3 3.0 Mist.
2015-Feb-28 11:50 220 10 3.8 3.0 Mist.
2015-Feb-28 11:20 210 8 3.2 3.0 Mist.
2015-Feb-28 10:50 210 10 3.2 3.0 Mist.
2015-Feb-28 10:20 210 9 3.2 3.0 Mist.
2015-Feb-28 09:50 210 9 3.2 2.0 Mist.
2015-Feb-28 09:20 210 10 2.7 2.0 Mist.
2015-Feb-28 08:50 200 9 2.7 2.0 Mist.
2015-Feb-28 08:20 200 8 2.4 2.0 Mist.
2015-Feb-28 07:50 200 7 2.4 2.0 Mist.
2015-Feb-28 07:20 190 8 1.9 2.0 Mist.